Regional Weather Roundup
Issued by NWS

Home | Current Version | Previous Version | Text Only | Print | Product List | Glossary Off
Versions: 1 2 3 4 5 6 7 8 9 10 11 12 13 14 15 16 17 18 19 20 21 22 23 24 25 26 27 28 29 30 31 32 33 34 35 36 37 38 39 40 41 42 43 44 45 46 47 48 49 50

000
ASUS43 KFSD 300302
RWRSD

WEATHER ROUNDUP FOR SOUTH DAKOTA
NATIONAL WEATHER SERVICE SIOUX FALLS SD
900 PM CST THU JAN 29 2015

NOTE: "FAIR" INDICATES FEW OR NO CLOUDS BELOW 12,000 FEET WITH NO
SIGNIFICANT WEATHER AND/OR OBSTRUCTIONS TO VISIBILITY.


SDZ001>005-009-010-012>017-300400-
NORTHWEST AND NORTH CENTRAL SOUTH DAKOTA

CITY           SKY/WX    TMP DP  RH WIND       PRES   REMARKS
BUFFALO          N/A     29  11  47 SE8       30.28F WCI  21
FAITH            N/A     23  14  68 S12       30.39F WCI  12
MOBRIDGE       CLEAR     24  19  81 E10       30.44S WCI  14
$$

SDZ012>016-024>037-041>051-057-063-072>074-300400-
SOUTHWEST AND SOUTH CENTRAL SOUTH DAKOTA

CITY           SKY/WX    TMP DP  RH WIND       PRES   REMARKS
RAPID CTY ARPT CLEAR     28  10  46 CALM      30.37F
PIERRE         CLEAR     22  18  85 E7        30.46S WCI  13
CUSTER         CLEAR     28  16  60 SW5       30.32F WCI  23
ELLSWORTH AFB  CLEAR     32   9  38 S8        30.36F WCI  25
PHILIP         CLEAR     25  16  68 CALM      30.43F
PINE RIDGE     CLEAR     23  12  62 CALM      30.39F
WINNER         FAIR      27  20  75 SE9       30.48R WCI  18
$$

SDZ004>011-016>023-039-040-300400-
NORTHEAST SOUTH DAKOTA

CITY           SKY/WX    TMP DP  RH WIND       PRES   REMARKS
ABERDEEN       CLOUDY    21  14  74 NE9       30.53F WCI  11
WATERTOWN      CLOUDY    19  14  81 NW10      30.49S WCI   7
SISSETON         N/A     16  10  77 N8        30.55R WCI   5
$$

SDZ017-020-022-023-036>040-048>070-300400-
SOUTHEAST SOUTH DAKOTA

CITY           SKY/WX    TMP DP  RH WIND       PRES   REMARKS
SIOUX FALLS    CLOUDY    24  17  74 N10       30.52S WCI  14
HURON          CLEAR     20  17  88 E3        30.54R
MITCHELL       CLEAR     23  19  85 NE3       30.55R
YANKTON        CLEAR     25  19  80 N6        30.55R WCI  18
$$

ABBREVIATIONS USED IN REMARKS
   TC - TEMPERATURE IN CELSIUS
  WCI - WIND CHILL INDEX
   HX - HEAT INDEX
  VSB - VISIBILITY



USA.gov is the U.S. government's official web portal to all federal, state and local government web resources and services.